When you browse on this site, cookies collect data to enhance your experience and personalize the content and advertising you see.
Visit our Privacy Policy to learn more. By continuing to use the site, you agree to this use of cookies and data.
  • In Spain
  • List of Countries
  • For 7 days
  • Water Temperature
  • Weather Map
  • Weather Widgets
  • user-avatar
    Login

    Hourly Weather Praia

    Today, 19 November, Tuesday

    Time Temperature Precipitation Wind Pressure Humidity
    00:00 +25°C° 0 mm 5 mps 683 mmHg 17%
    01:00 +23°C° 0 mm 5 mps 683 mmHg 18%
    02:00 +23°C° 0 mm 4 mps 683 mmHg 18%
    03:00 +22°C° 0 mm 4 mps 683 mmHg 17%
    04:00 +22°C° 0 mm 4 mps 683 mmHg 17%
    05:00 +21°C° 0 mm 4 mps 682 mmHg 17%
    06:00 +22°C° 0 mm 4 mps 683 mmHg 16%
    07:00 +22°C° 0 mm 5 mps 684 mmHg 15%
    08:00 +23°C° 0 mm 5 mps 684 mmHg 14%
    09:00 +26°C° 0 mm 6 mps 684 mmHg 13%
    10:00 +29°C° 0 mm 6 mps 685 mmHg 11%
    11:00 +32°C° 0 mm 6 mps 685 mmHg 9%
    12:00 +33°C° 0 mm 6 mps 684 mmHg 9%
    13:00 +34°C° 0 mm 6 mps 684 mmHg 8%
    14:00 +35°C° 0 mm 6 mps 683 mmHg 8%
    15:00 +35°C° 0 mm 6 mps 683 mmHg 8%
    16:00 +34°C° 0 mm 6 mps 683 mmHg 8%
    17:00 +34°C° 0 mm 6 mps 683 mmHg 8%
    18:00 +32°C° 0 mm 6 mps 683 mmHg 10%
    19:00 +30°C° 0 mm 6 mps 683 mmHg 11%
    20:00 +28°C° 0 mm 6 mps 684 mmHg 12%
    21:00 +27°C° 0 mm 6 mps 684 mmHg 13%
    22:00 +26°C° 0 mm 6 mps 683 mmHg 14%
    23:00 +26°C° 0 mm 5 mps 683 mmHg 15%

    Tomorrow, 20 November, Wednesday

    Time Temperature Precipitation Wind Pressure Humidity
    00:00 +25°C° 0 mm 5 mps 683 mmHg 16%
    01:00 +23°C° 0 mm 5 mps 683 mmHg 17%
    02:00 +23°C° 0 mm 5 mps 682 mmHg 17%
    03:00 +22°C° 0 mm 4 mps 682 mmHg 19%
    04:00 +22°C° 0 mm 4 mps 682 mmHg 20%
    05:00 +21°C° 0 mm 4 mps 682 mmHg 21%
    06:00 +22°C° 0 mm 5 mps 683 mmHg 20%
    07:00 +22°C° 0 mm 5 mps 683 mmHg 20%
    08:00 +23°C° 0 mm 6 mps 684 mmHg 19%
    09:00 +26°C° 0 mm 6 mps 684 mmHg 17%
    10:00 +28°C° 0 mm 7 mps 684 mmHg 15%
    11:00 +32°C° 0 mm 7 mps 685 mmHg 12%
    12:00 +32°C° 0 mm 7 mps 684 mmHg 11%
    13:00 +33°C° 0 mm 8 mps 684 mmHg 11%
    14:00 +34°C° 0 mm 8 mps 683 mmHg 10%
    15:00 +34°C° 0 mm 7 mps 683 mmHg 10%
    16:00 +33°C° 0 mm 7 mps 683 mmHg 10%
    17:00 +33°C° 0 mm 7 mps 682 mmHg 10%
    18:00 +30°C° 0 mm 7 mps 682 mmHg 11%
    19:00 +28°C° 0 mm 6 mps 683 mmHg 12%
    20:00 +27°C° 0 mm 6 mps 683 mmHg 13%
    21:00 +26°C° 0 mm 6 mps 683 mmHg 15%
    22:00 +25°C° 0 mm 5 mps 683 mmHg 16%
    23:00 +23°C° 0 mm 5 mps 683 mmHg 18%

    Day after tomorrow, 21 November, Thursday

    Time Temperature Precipitation Wind Pressure Humidity
    00:00 +23°C° 0 mm 5 mps 683 mmHg 20%
    01:00 +22°C° 0 mm 4 mps 682 mmHg 22%
    02:00 +22°C° 0 mm 4 mps 682 mmHg 24%
    03:00 +21°C° 0 mm 4 mps 682 mmHg 25%
    04:00 +21°C° 0 mm 3 mps 682 mmHg 27%
    05:00 +20°C° 0 mm 3 mps 682 mmHg 28%
    06:00 +20°C° 0 mm 4 mps 683 mmHg 27%
    07:00 +21°C° 0 mm 4 mps 683 mmHg 26%
    08:00 +21°C° 0 mm 5 mps 684 mmHg 26%
    09:00 +23°C° 0 mm 5 mps 684 mmHg 21%
    10:00 +26°C° 0 mm 6 mps 684 mmHg 17%
    11:00 +28°C° 0 mm 7 mps 684 mmHg 13%
    12:00 +29°C° 0 mm 7 mps 684 mmHg 12%
    13:00 +30°C° 0 mm 7 mps 683 mmHg 10%
    14:00 +32°C° 0 mm 8 mps 683 mmHg 9%
    15:00 +32°C° 0 mm 7 mps 682 mmHg 9%
    16:00 +30°C° 0 mm 7 mps 682 mmHg 9%
    17:00 +30°C° 0 mm 7 mps 682 mmHg 9%
    18:00 +28°C° 0 mm 6 mps 682 mmHg 10%
    19:00 +27°C° 0 mm 5 mps 682 mmHg 11%
    20:00 +25°C° 0 mm 5 mps 682 mmHg 13%
    21:00 +23°C° 0 mm 5 mps 682 mmHg 14%
    22:00 +23°C° 0 mm 5 mps 682 mmHg 15%
    23:00 +22°C° 0 mm 4 mps 682 mmHg 16%

    22 November, Friday

    Time Temperature Precipitation Wind Pressure Humidity
    00:00 +21°C° 0 mm 5 mps 682 mmHg 17%
    01:00 +21°C° 0 mm 5 mps 681 mmHg 19%
    02:00 +20°C° 0 mm 5 mps 681 mmHg 20%
    03:00 +20°C° 0 mm 4 mps 681 mmHg 21%
    04:00 +19°C° 0 mm 4 mps 681 mmHg 22%
    05:00 +19°C° 0 mm 4 mps 681 mmHg 23%
    06:00 +19°C° 0 mm 5 mps 682 mmHg 23%
    07:00 +20°C° 0 mm 5 mps 682 mmHg 23%
    08:00 +20°C° 0 mm 6 mps 683 mmHg 22%
    09:00 +23°C° 0 mm 6 mps 683 mmHg 19%
    10:00 +26°C° 0 mm 7 mps 683 mmHg 16%
    11:00 +28°C° 0 mm 8 mps 684 mmHg 12%
    12:00 +29°C° 0 mm 8 mps 683 mmHg 11%
    13:00 +31°C° 0 mm 8 mps 683 mmHg 9%
    14:00 +33°C° 0 mm 7 mps 682 mmHg 8%
    15:00 +32°C° 0 mm 7 mps 682 mmHg 8%
    16:00 +32°C° 0 mm 7 mps 682 mmHg 9%
    17:00 +30°C° 0 mm 7 mps 682 mmHg 9%
    18:00 +28°C° 0 mm 6 mps 682 mmHg 11%
    19:00 +27°C° 0 mm 6 mps 682 mmHg 12%
    20:00 +25°C° 0 mm 5 mps 682 mmHg 13%
    21:00 +23°C° 0 mm 5 mps 682 mmHg 15%
    22:00 +23°C° 0 mm 5 mps 682 mmHg 16%
    23:00 +22°C° 0 mm 5 mps 683 mmHg 17%

    23 November, Saturday

    Time Temperature Precipitation Wind Pressure Humidity
    00:00 +21°C° 0 mm 5 mps 682 mmHg 18%
    01:00 +21°C° 0 mm 5 mps 682 mmHg 19%
    02:00 +20°C° 0 mm 4 mps 682 mmHg 20%
    03:00 +19°C° 0 mm 4 mps 682 mmHg 21%
    04:00 +19°C° 0 mm 4 mps 682 mmHg 21%
    05:00 +18°C° 0 mm 4 mps 682 mmHg 22%
    06:00 +19°C° 0 mm 4 mps 683 mmHg 21%
    07:00 +20°C° 0 mm 5 mps 683 mmHg 20%
    08:00 +20°C° 0 mm 5 mps 683 mmHg 20%
    09:00 +23°C° 0 mm 6 mps 684 mmHg 17%
    10:00 +26°C° 0 mm 6 mps 684 mmHg 14%
    11:00 +29°C° 0 mm 7 mps 684 mmHg 11%
    12:00 +30°C° 0 mm 7 mps 684 mmHg 10%
    13:00 +33°C° 0 mm 7 mps 683 mmHg 9%
    14:00 +34°C° 0 mm 7 mps 683 mmHg 8%
    15:00 +33°C° 0 mm 7 mps 683 mmHg 8%
    16:00 +33°C° 0 mm 6 mps 683 mmHg 9%
    17:00 +33°C° 0 mm 6 mps 682 mmHg 9%
    18:00 +30°C° 0 mm 6 mps 683 mmHg 12%
    19:00 +28°C° 0 mm 5 mps 683 mmHg 14%
    20:00 +26°C° 0 mm 5 mps 683 mmHg 16%
    21:00 +25°C° 0 mm 5 mps 683 mmHg 18%
    22:00 +25°C° 0 mm 5 mps 683 mmHg 20%
    23:00 +23°C° 0 mm 5 mps 683 mmHg 22%

    24 November, Sunday

    Time Temperature Precipitation Wind Pressure Humidity
    00:00 +22°C° 0 mm 5 mps 683 mmHg 23%
    01:00 +22°C° 0 mm 5 mps 683 mmHg 24%
    02:00 +21°C° 0 mm 5 mps 683 mmHg 26%
    03:00 +21°C° 0 mm 4 mps 683 mmHg 26%
    04:00 +20°C° 0 mm 4 mps 683 mmHg 27%
    05:00 +20°C° 0 mm 4 mps 683 mmHg 27%
    06:00 +21°C° 0 mm 5 mps 683 mmHg 26%
    07:00 +21°C° 0 mm 5 mps 684 mmHg 25%
    08:00 +22°C° 0 mm 5 mps 684 mmHg 23%
    09:00 +24°C° 0 mm 6 mps 684 mmHg 20%
    10:00 +28°C° 0 mm 6 mps 685 mmHg 16%
    11:00 +30°C° 0 mm 7 mps 685 mmHg 12%
    12:00 +32°C° 0 mm 7 mps 684 mmHg 11%
    13:00 +33°C° 0 mm 7 mps 684 mmHg 10%
    14:00 +34°C° 0 mm 7 mps 683 mmHg 9%
    15:00 +34°C° 0 mm 7 mps 683 mmHg 9%
    16:00 +33°C° 0 mm 6 mps 683 mmHg 9%
    17:00 +33°C° 0 mm 6 mps 683 mmHg 10%
    18:00 +30°C° 0 mm 5 mps 683 mmHg 11%
    19:00 +28°C° 0 mm 5 mps 683 mmHg 12%
    20:00 +26°C° 0 mm 5 mps 683 mmHg 14%
    21:00 +25°C° 0 mm 5 mps 683 mmHg 14%
    22:00 +25°C° 0 mm 5 mps 683 mmHg 15%
    23:00 +23°C° 0 mm 4 mps 683 mmHg 16%
    Show more